{"data":{"norad_id":58645,"intl_designator":"2023-205A","name":"TIANMU-1 11","alt_names":[],"object_type":"PAYLOAD","status":"ACTIVE","operator":null,"country":"PRC","launch_date":"2023-12-25","launch_site_code":"JSC","launch_vehicle":null,"mission":null,"orbit_class":"UNKNOWN","rcs_meters":null,"size_class":null,"mass_kg":null,"dimensions":null,"purposes":["earth_obs"],"wikipedia_slug":null,"has_3d_model":false,"image_url":null,"decayed_at":null,"tle_current":{"epoch":"2026-05-25T04:21:22.216032Z","epoch_age_seconds":52686,"freshness":"FRESH","line1":"1 58645U 23205A   26145.18150713  .00005230  00000+0  20151-3 0  9995","line2":"2 58645  97.3461 167.1033 0010859  87.7638 272.4844 15.26716761134015","mean_motion":15.26716761,"eccentricity":0.0010859,"inclination_deg":97.3461,"raan_deg":167.1033,"arg_perigee_deg":87.7638,"mean_anomaly_deg":272.4844,"bstar":0.00020151,"rev_number":13401,"period_min":94.32004919215,"perigee_km":478.18179182833,"apogee_km":493.08853220981,"semimajor_km":6863.7721620191,"source":"CELESTRAK","updated_at":"2026-05-25T13:38:12.257149Z"}}}